Location: Bruch
(44.2051°N, 0.4120°E)
Time: 09:43:09
(UTC+00:00)

PSLV R/B - Pass Details

Date: 29 November 2020
Orbit: 568 x 597 km, 98.2° (Epoch: 25 January)

Event Time Altitude Azimuth Distance (km) Brightness Sun altitude
Rises 05:44:25 0° 179° (S) 2,807 7.6 -15.2°
Reaches altitude 10° 05:46:38 10° 185° (S) 1,907 6.7 -14.9°
Maximum altitude 05:50:37 47° 260° (W) 779 4.2 -14.2°
Enters shadow 05:54:32 11° 335° (NNW) 1,872 6.1 -13.5°
